sat.trackr.live / text

‹ back to catalog

STARLINK-33729

NORAD 63647 · 2025-083P

PAYLOAD ACTIVE UNKNOWN

§ Identity

Operator
Country
US
Launch date
2025-04-25
Launch site
AFETR
Launch vehicle
Mass (kg)
RCS (m²)

Purposes: comms

External: N2YO · Heavens-Above · Gunter

§ Orbital elements

Epoch: 2026-09-20T22:30:00.696384Z

Period
94.27 min
Inclination
43.0015°
Eccentricity
0.0001687
Mean motion
15.27596176 rev/d
Perigee alt
481.8 km
Apogee alt
484.2 km
Semi-major
6,861.1 km
B*
4.0566e-4
RAAN
342.8825°
Arg perigee
267.0300°
Mean anomaly
93.0359°
Rev number
7,992

§ Raw data

STARLINK-337291 63647U 25083P   26263.93750806  .00010923  00000+0  40566-3 0  99992 63647  43.0015 342.8825 0001687 267.0300  93.0359 15.27596176 79928

JSON: /api/v1/satellites/63647 · /tle

For live sub-satellite position, see the globe view (requires WebGL).

§ Visibility from observer

Set your observer location to see the next 7 days of passes ≥ 10°. The values pass through the URL so the page stays shareable.

No JS? Fill the form by hand. The geolocation button needs JavaScript.